[[{"header":{"parameterUnit":"m.s-1","parameterCategory":1,"la1":30.2991,"la2":30.254,"lo1":-89.0895,"lo2":-89.0444,"dy":0.0017,"dx":0.0017,"nx":28,"ny":28,"refTime":"2023-11-21T09:00:00:Z","depth":0,"parameterNumber":2,"parameterNumberName":"U-component_of_WINDS"},"data":[0,0,0,0,0,0,0,0,0,0,0,0,0,0,0,0,0,0,0,0,0,0,0,0,0,0,0,0,0,0,0,0,0,0,0,0,0,0,0,0,0,0,0,0,0,0,0,0,0,0,0,0,0,0,0,0,0,0,3.2687,3.2687,0,3.2709,3.2709,3.271,3.2664,3.2663,3.2661,3.266,3.2681,3.2683,3.2685,0,0,0,0,0,0,0,0,0,0,0,0,0,3.2606,3.2607,3.2687,3.2687,3.2687,3.2709,3.2709,3.271,3.2664,3.2663,3.2661,3.2659,3.268,3.2683,3.2685,0,0,0,0,0,0,0,0,0,0,0,0,0,3.2636,3.2608,3.2687,3.2667,3.2666,3.2709,3.2709,3.271,3.2665,3.2662,3.266,3.2658,3.268,3.2682,3.2685,3.2748,0,0,3.2694,3.2696,0,0,0,0,0,0,0,0,3.2634,3.2639,3.267,3.2669,3.2667,3.2682,3.2688,3.2722,3.2665,3.2665,3.266,3.2657,3.2683,3.2685,3.2694,3.2749,3.275,3.2695,3.2696,3.2698,3.2698,0,0,0,0,0,0,0,3.2632,3.2637,3.2696,3.2671,3.2669,3.2658,3.266,3.2695,3.2686,3.2665,3.2662,3.2665,3.2682,3.2692,3.2695,3.275,3.2694,3.2697,3.2699,3.27,3.2859,3.2861,0,0,0,0,0,0,3.2632,3.2636,3.2695,3.2696,3.2645,3.2661,3.2663,3.2679,3.2686,3.2685,3.2667,3.2663,3.2688,3.2691,3.2695,3.277,3.2698,3.27,3.2702,3.2856,3.2859,3.2862,0,0,0,0,0,0,3.2631,3.2638,3.2694,3.2665,3.2672,3.2665,3.2683,3.2681,3.2691,3.2687,3.2685,3.2679,3.2686,3.2691,3.2736,3.277,3.2702,3.2704,3.2854,3.2857,3.2861,3.2919,0,0,0,0,0,0,3.2629,3.2638,3.2661,3.2666,3.2673,3.2734,3.2685,3.2683,3.2696,3.2691,3.2698,3.2697,3.2685,3.2732,3.2739,3.2773,3.2707,3.285,3.2855,3.286,3.2914,3.2924,3.2933,0,0,0,0,0,3.2626,3.2676,3.2663,3.267,3.2702,3.2736,3.274,3.2726,3.2699,3.2723,3.2721,3.2696,3.2765,3.2736,3.2744,3.2779,3.2848,3.2854,3.2859,3.291,3.2922,3.2933,0,0,0,0,0,0,3.2674,3.2676,3.2661,3.2714,3.2726,3.2728,3.2757,3.2739,3.2758,3.2752,3.2733,3.2735,3.2784,3.2786,3.2754,3.2841,3.2802,3.281,3.2838,3.285,3.2859,3.2857,3.2709,0,0,0,0,0,3.2691,3.2718,3.2718,3.2765,3.2772,3.2764,3.2778,3.2767,3.2777,3.2781,3.2782,3.2794,3.2818,3.2834,3.2856,3.2914,3.2916,3.2943,3.2952,3.296,3.2966,3.2999,3.3011,3.288,3.288,3.288,0,0,3.2725,3.273,3.2748,3.2775,3.2782,3.2811,3.2768,3.28,3.2821,3.2786,3.2828,3.283,3.2841,3.2894,3.2917,3.2897,3.3003,3.2967,3.2974,3.2976,3.3006,3.3019,3.303,3.2884,3.2883,3.2883,0,0,3.2803,3.281,3.285,3.2859,3.2871,3.2866,3.2876,3.2882,3.2882,3.2925,3.29,3.2925,3.2967,3.2976,3.2987,3.3072,3.305,3.308,3.3129,3.3161,3.3171,3.318,3.3211,3.3223,3.3086,3.3086,3.3086,0,3.2845,3.2887,3.2873,3.2907,3.292,3.2891,3.2932,3.2942,3.296,3.297,3.2948,3.3001,3.3007,3.3062,3.3083,3.3092,3.3103,3.3078,3.3171,3.318,3.3188,3.3218,3.3229,3.309,3.3089,3.3089,3.3089,0,3.2938,3.2969,3.3,3.302,3.3037,3.3074,3.3066,3.3085,3.3073,3.307,3.3115,3.3121,3.3144,3.3157,3.3144,3.3211,3.3198,3.3174,3.3134,3.3205,3.3232,3.3243,3.3095,3.3093,3.3092,3.3091,0,0,3.3045,3.3058,3.307,3.308,3.3092,3.3116,3.3153,3.3177,3.3194,3.3208,3.3239,3.3277,3.3255,3.3267,3.3256,3.3285,3.3353,3.3257,3.3257,3.3275,3.3428,3.3446,3.3459,3.334,3.3342,3.3343,3.3427,0,3.3123,3.3187,3.3176,3.3238,3.3267,3.3241,3.3274,3.3285,3.3285,3.3309,3.3308,3.3336,3.3305,3.3312,3.3339,3.3339,3.3383,3.3333,3.3368,3.337,3.3366,3.3473,3.3492,3.357,3.3437,3.3439,3.344,0,3.3221,3.3241,3.3307,3.3317,3.3329,3.3358,3.3381,3.3404,3.3417,3.3415,3.343,3.3415,3.3452,3.3413,3.3465,3.3431,3.3446,3.3448,3.3451,3.3453,3.3409,3.3478,3.3594,3.3606,3.3457,3.3456,3.3455,0,3.3293,3.3336,3.3382,3.3391,3.3404,3.3425,3.3432,3.3443,3.3459,3.3478,3.3489,3.3512,3.3525,3.3544,3.3536,3.3508,3.359,3.355,3.359,3.359,3.3607,3.3606,3.3727,3.3617,3.3617,3.3617,3.3616,0,3.3381,3.3422,3.3414,3.3442,3.3488,3.3476,3.3522,3.3525,3.3536,3.3565,3.3544,3.3571,3.3558,3.3585,3.3579,3.3624,3.3629,3.3629,3.3627,3.3631,3.3631,3.3639,3.3633,3.362,3.3619,3.3618,3.3618,0,3.3468,3.3465,3.3512,3.3522,3.3525,3.3559,3.3567,3.3593,3.3592,3.3629,3.3637,3.3635,3.3665,3.3659,3.3692,3.3688,3.3745,3.3736,3.374,3.3738,3.3779,3.3775,3.3909,3.3926,3.3805,3.3806,3.3807,0,3.3524,3.3556,3.3569,3.3587,3.3596,3.3625,3.3642,3.3632,3.365,3.3669,3.3694,3.3723,3.3745,3.3795,3.3796,3.3822,3.3814,3.3859,3.3817,3.3821,3.3815,3.3813,3.3816,3.3867,3.3868,3.3869,3.387,0,3.3624,3.3622,3.3647,3.3672,3.3693,3.3713,3.373,3.3746,3.3737,3.3759,3.3791,3.3808,3.3843,3.3872,3.3897,3.3904,3.3886,3.3884,3.3895,3.3899,3.39,3.39,3.3763,3.388,3.3879,3.3879,3.3878,3.3878,3.3698,3.3725,3.374,3.3769,3.3782,3.3799,3.3825,3.3828,3.3854,3.3882,3.3875,3.3911,3.3926,3.3957,3.3967,3.3995,3.3978,3.3993,3.3997,3.4001,3.4006,3.3896,3.3999,3.3999,3.3999,3.3999,3.3998,0,3.3797,3.3806,3.3833,3.3859,3.3882,3.3865,3.3884,3.3905,3.3937,3.3952,3.3976,3.4013,3.4042,3.4047,3.4074,3.4096,3.4089,3.4104,3.4102,3.4104,3.4019,3.4008,3.4109,3.4109,3.4109,3.4109,3.4109,3.4109,3.3851,3.3898,3.3897,3.395,3.3958,3.3994,3.4006,3.4023,3.4035,3.4078,3.4102,3.4106,3.4117,3.4146,3.4172,3.4173,3.4184,3.4202,3.42,3.4121,3.411,3.4099,3.4088,3.4205,3.4205,3.4282,3.4283,3.4283]},{"header":{"parameterUnit":"m.s-1","parameterCategory":1,"la1":30.2991,"la2":30.254,"lo1":-89.0895,"lo2":-89.0444,"dy":0.0017,"dx":0.0017,"nx":28,"ny":28,"refTime":"2023-11-21T09:00:00:Z","depth":0,"parameterNumber":3,"parameterNumberName":"V-component_of_WINDS"},"data":[0,0,0,0,0,0,0,0,0,0,0,0,0,0,0,0,0,0,0,0,0,0,0,0,0,0,0,0,0,0,0,0,0,0,0,0,0,0,0,0,0,0,0,0,0,0,0,0,0,0,0,0,0,0,0,0,0,0,-5.696,-5.6962,0,-5.7079,-5.7081,-5.7082,-5.7038,-5.7035,-5.7032,-5.703,-5.715,-5.7155,-5.7161,0,0,0,0,0,0,0,0,0,0,0,0,0,-5.6694,-5.67,-5.696,-5.6962,-5.6963,-5.7079,-5.7081,-5.7082,-5.7038,-5.7035,-5.7031,-5.7028,-5.7148,-5.7155,-5.7162,0,0,0,0,0,0,0,0,0,0,0,0,0,-5.6811,-5.6701,-5.696,-5.6955,-5.6956,-5.7079,-5.7081,-5.7083,-5.7039,-5.7035,-5.7031,-5.7027,-5.7146,-5.7154,-5.7163,-5.7297,0,0,-5.7189,-5.7193,0,0,0,0,0,0,0,0,-5.6805,-5.6821,-5.6954,-5.6956,-5.6957,-5.7039,-5.7031,-5.7155,-5.704,-5.7007,-5.7029,-5.7025,-5.7116,-5.7127,-5.7158,-5.7303,-5.7308,-5.719,-5.7195,-5.7199,-5.7201,0,0,0,0,0,0,0,-5.6797,-5.6816,-5.7007,-5.6956,-5.6958,-5.6947,-5.6959,-5.7054,-5.7083,-5.701,-5.7007,-5.7022,-5.7116,-5.715,-5.7161,-5.731,-5.7189,-5.7197,-5.7202,-5.7206,-5.7573,-5.7577,0,0,0,0,0,0,-5.6788,-5.6809,-5.7003,-5.7011,-5.6869,-5.6955,-5.6969,-5.7017,-5.7082,-5.7088,-5.7025,-5.7019,-5.7137,-5.7151,-5.7165,-5.7328,-5.7198,-5.7207,-5.7211,-5.7568,-5.7574,-5.7579,0,0,0,0,0,0,-5.6783,-5.6806,-5.6999,-5.6909,-5.6933,-5.6964,-5.7019,-5.7021,-5.7055,-5.7093,-5.7098,-5.7054,-5.7135,-5.7153,-5.7265,-5.7332,-5.721,-5.7218,-5.7563,-5.757,-5.7577,-5.7655,0,0,0,0,0,0,-5.6775,-5.6804,-5.6855,-5.6911,-5.6938,-5.7097,-5.7023,-5.7027,-5.7071,-5.7064,-5.7122,-5.7128,-5.7133,-5.7253,-5.7274,-5.7341,-5.7225,-5.7557,-5.7566,-5.7574,-5.7647,-5.7664,-5.7678,0,0,0,0,0,-5.6766,-5.6872,-5.6858,-5.6882,-5.7003,-5.7101,-5.7116,-5.712,-5.7076,-5.7128,-5.7153,-5.7126,-5.7321,-5.7265,-5.7288,-5.7359,-5.7553,-5.7564,-5.7574,-5.7639,-5.766,-5.7678,0,0,0,0,0,0,-5.6822,-5.6879,-5.6864,-5.6991,-5.7042,-5.7093,-5.7159,-5.7142,-5.7206,-5.7197,-5.7199,-5.7212,-5.7329,-5.7355,-5.7291,-5.7494,-5.743,-5.7446,-5.7472,-5.7493,-5.7508,-5.7499,-5.7232,0,0,0,0,0,-5.6849,-5.6924,-5.697,-5.7078,-5.7104,-5.7127,-5.717,-5.7169,-5.7221,-5.7242,-5.7275,-5.7327,-5.74,-5.7447,-5.7517,-5.765,-5.7663,-5.7711,-5.7727,-5.774,-5.7753,-5.7828,-5.785,-5.7613,-5.7613,-5.7613,0,0,-5.6906,-5.6946,-5.6993,-5.709,-5.7129,-5.7208,-5.7145,-5.723,-5.7289,-5.7255,-5.7364,-5.739,-5.7448,-5.7572,-5.7628,-5.7598,-5.7822,-5.7753,-5.7763,-5.777,-5.7841,-5.7863,-5.7883,-5.762,-5.7619,-5.7618,0,0,-5.7049,-5.7087,-5.7182,-5.7223,-5.7284,-5.7299,-5.7322,-5.7377,-5.7394,-5.7503,-5.748,-5.755,-5.7675,-5.7718,-5.7756,-5.7919,-5.7898,-5.7942,-5.8024,-5.8097,-5.8116,-5.8133,-5.8192,-5.8214,-5.7955,-5.7955,-5.7955,0,-5.7112,-5.7229,-5.7233,-5.7321,-5.7365,-5.7339,-5.7436,-5.7476,-5.7555,-5.7586,-5.7551,-5.771,-5.7746,-5.7881,-5.7922,-5.7953,-5.798,-5.7935,-5.8113,-5.813,-5.8145,-5.8202,-5.8225,-5.796,-5.796,-5.7959,-5.7959,0,-5.7304,-5.7386,-5.7456,-5.7535,-5.7587,-5.7678,-5.7696,-5.7748,-5.7744,-5.7763,-5.7876,-5.792,-5.7999,-5.8031,-5.8026,-5.8166,-5.8145,-5.8112,-5.8048,-5.8173,-5.8227,-5.8248,-5.7967,-5.7965,-5.7964,-5.7963,0,0,-5.7484,-5.7567,-5.7592,-5.7629,-5.7695,-5.7759,-5.785,-5.7929,-5.7974,-5.803,-5.8108,-5.8216,-5.8186,-5.823,-5.823,-5.8294,-5.8423,-5.8253,-5.8254,-5.8284,-5.8582,-5.8607,-5.8632,-5.8409,-5.8413,-5.8417,-5.8577,0,-5.7634,-5.7795,-5.7802,-5.7949,-5.8026,-5.8004,-5.8084,-5.8134,-5.8155,-5.8224,-5.8247,-5.8324,-5.8278,-5.8305,-5.8367,-5.8394,-5.8483,-5.8382,-5.8482,-5.8485,-5.8468,-5.866,-5.8686,-5.8835,-5.8598,-5.8601,-5.8604,0,-5.7829,-5.7894,-5.8049,-5.8107,-5.8139,-5.8211,-5.8285,-5.835,-5.8407,-5.8418,-5.8468,-5.846,-5.8555,-5.8488,-5.8619,-5.8551,-5.8592,-5.8612,-5.8618,-5.8627,-5.8552,-5.8675,-5.8883,-5.8905,-5.8637,-5.8634,-5.8632,0,-5.7947,-5.8073,-5.8182,-5.8214,-5.8284,-5.8335,-5.8367,-5.842,-5.8467,-5.8531,-5.8562,-5.8636,-5.8677,-5.8735,-5.8748,-5.8698,-5.8879,-5.8813,-5.8892,-5.8892,-5.893,-5.8928,-5.9149,-5.8957,-5.8956,-5.8956,-5.8955,0,-5.8113,-5.8209,-5.8236,-5.8304,-5.8411,-5.8419,-5.8525,-5.8553,-5.8601,-5.8674,-5.8659,-5.8728,-5.874,-5.8812,-5.8823,-5.8931,-5.8949,-5.8961,-5.8962,-5.8962,-5.8961,-5.8989,-5.8979,-5.8962,-5.896,-5.8959,-5.8958,0,-5.8262,-5.8284,-5.8402,-5.846,-5.8477,-5.8554,-5.8603,-5.8668,-5.8688,-5.8781,-5.8803,-5.8836,-5.892,-5.8938,-5.9037,-5.9045,-5.9173,-5.9164,-5.9154,-5.9154,-5.9231,-5.9224,-5.9478,-5.9512,-5.9297,-5.9299,-5.9301,0,-5.8367,-5.8441,-5.8507,-5.8555,-5.859,-5.8668,-5.8717,-5.8728,-5.878,-5.8852,-5.8908,-5.8991,-5.9058,-5.9193,-5.9226,-5.9302,-5.9295,-5.9379,-5.9307,-5.9305,-5.9298,-5.9294,-5.9302,-5.9393,-5.9395,-5.9397,-5.9399,0,-5.8551,-5.8559,-5.8631,-5.8707,-5.8767,-5.8827,-5.8884,-5.8925,-5.8944,-5.9003,-5.909,-5.9142,-5.9244,-5.9327,-5.9405,-5.9437,-5.9422,-5.9422,-5.9444,-5.9445,-5.9436,-5.9443,-5.9193,-5.9415,-5.9414,-5.9412,-5.9412,-5.9411,-5.8682,-5.8747,-5.8805,-5.8886,-5.8931,-5.8986,-5.9051,-5.908,-5.9153,-5.9238,-5.924,-5.9335,-5.9392,-5.9495,-5.9532,-5.9607,-5.9581,-5.9613,-5.9621,-5.9629,-5.9637,-5.9425,-5.9621,-5.962,-5.962,-5.962,-5.9619,0,-5.8867,-5.8903,-5.8978,-5.906,-5.9124,-5.9105,-5.9169,-5.9223,-5.9307,-5.9362,-5.9429,-5.953,-5.9611,-5.9651,-5.9731,-5.9783,-5.9778,-5.9804,-5.98,-5.9808,-5.9655,-5.9628,-5.9807,-5.9807,-5.9806,-5.9806,-5.9806,-5.9806,-5.897,-5.908,-5.9096,-5.9229,-5.9265,-5.9358,-5.9397,-5.9448,-5.9492,-5.9605,-5.9673,-5.9699,-5.9748,-5.9832,-5.9906,-5.9916,-5.9946,-5.9976,-5.9982,-5.9838,-5.9819,-5.9801,-5.9775,-5.9982,-5.9982,-6.013,-6.0131,-6.0132]}]]